QPF
0.02 0.01 0.00 0.00 0.00 0.00 0.00 0.00 0.00 0.00 0.00 0.00 0.01 0.01 0.01 0.01 0.01 0.00 0.00 0.00 0.00 0.00 0.00 0.00 0.00 0.01 0.01 0.01 0.01 0.01 0.01 0.01 0.01 0.01 0.01 0.01 0.02 0.01 0.02 0.02 0.01 0.01 0.02
0.03 0.01 0.00 0.00 0.00 0.00 0.00 0.00 0.00 0.00 0.00 0.00 0.01 0.01 0.02 0.02 0.02 0.01 0.01 0.00 0.00 0.00 0.00 0.01 0.01 0.01 0.01 0.01 0.01 0.01 0.01 0.01 0.01 0.01 0.01 0.01 0.01 0.01 0.01 0.01 0.01 0.01 0.02
0.06 0.02 0.01 0.00 0.00 0.00 0.00 0.00 0.00 0.00 0.00 0.00 0.00 0.01 0.01 0.02 0.02 0.02 0.01 0.01 0.00 0.00 0.00 0.01 0.01 0.01 0.01 0.01 0.01 0.00 0.00 0.01 0.01 0.01 0.01 0.01 0.01 0.01 0.01 0.01 0.01 0.01 0.01
0.13 0.06 0.02 0.01 0.00 0.00 0.00 0.00 0.00 0.00 0.00 0.00 0.00 0.01 0.01 0.01 0.02 0.03 0.02 0.02 0.01 0.01 0.00 0.01 0.01 0.01 0.01 0.01 0.01 0.00 0.00 0.01 0.01 0.01 0.01 0.01 0.01 0.01 0.01 0.01 0.01 0.01 0.02
0.24 0.15 0.06 0.01 0.01 0.00 0.00 0.00 0.00 0.00 0.00 0.00 0.00 0.01 0.01 0.01 0.02 0.02 0.03 0.02 0.02 0.01 0.01 0.01 0.01 0.01 0.00 0.01 0.01 0.01 0.00 0.01 0.01 0.01 0.01 0.01 0.01 0.01 0.02 0.02 0.02 0.02 0.02
0.29 0.26 0.15 0.06 0.02 0.01 0.00 0.00 0.00 0.00 0.00 0.00 0.00 0.00 0.01 0.02 0.02 0.02 0.02 0.01 0.01 0.01 0.01 0.01 0.01 0.01 0.00 0.00 0.00 0.01 0.01 0.01 0.01 0.01 0.01 0.01 0.01 0.01 0.02 0.02 0.02 0.02 0.02
0.21 0.28 0.23 0.13 0.05 0.02 0.01 0.00 0.00 0.00 0.00 0.00 0.00 0.01 0.01 0.01 0.02 0.03 0.02 0.01 0.01 0.01 0.01 0.02 0.02 0.01 0.00 0.00 0.00 0.00 0.01 0.01 0.01 0.01 0.01 0.01 0.01 0.02 0.02 0.02 0.02 0.02 0.02
0.15 0.19 0.23 0.18 0.11 0.05 0.02 0.02 0.01 0.01 0.01 0.01 0.02 0.02 0.02 0.02 0.01 0.02 0.03 0.02 0.02 0.01 0.01 0.01 0.01 0.01 0.01 0.00 0.00 0.00 0.00 0.01 0.01 0.01 0.01 0.01 0.02 0.02 0.02 0.02 0.02 0.02 0.02
0.12 0.14 0.18 0.18 0.14 0.10 0.06 0.04 0.03 0.03 0.02 0.02 0.02 0.02 0.01 0.01 0.01 0.01 0.01 0.02 0.02 0.01 0.01 0.00 0.01 0.01 0.01 0.00 0.00 0.00 0.00 0.01 0.01 0.01 0.01 0.02 0.02 0.02 0.02 0.02 0.02 0.03 0.03
0.09 0.11 0.16 0.19 0.18 0.13 0.09 0.07 0.05 0.03 0.01 0.01 0.01 0.00 0.00 0.00 0.00 0.00 0.01 0.01 0.01 0.01 0.01 0.01 0.01 0.01 0.01 0.01 0.01 0.00 0.00 0.00 0.01 0.01 0.01 0.01 0.02 0.03 0.02 0.02 0.03 0.03 0.03
0.08 0.09 0.11 0.15 0.19 0.16 0.11 0.08 0.06 0.04 0.02 0.01 0.01 0.01 0.00 0.00 0.00 0.00 0.00 0.01 0.01 0.01 0.01 0.01 0.01 0.02 0.02 0.01 0.01 0.01 0.01 0.00 0.00 0.00 0.01 0.01 0.02 0.03 0.03 0.03 0.02 0.02 0.02
0.07 0.08 0.09 0.10 0.13 0.15 0.13 0.12 0.10 0.08 0.05 0.04 0.02 0.02 0.01 0.01 0.00 0.00 0.00 0.00 0.01 0.01 0.01 0.00 0.00 0.01 0.01 0.02 0.01 0.01 0.01 0.01 0.00 0.00 0.01 0.01 0.02 0.02 0.03 0.04 0.03 0.02 0.02
0.07 0.07 0.07 0.08 0.09 0.09 0.09 0.09 0.11 0.14 0.13 0.11 0.07 0.04 0.03 0.02 0.01 0.01 0.01 0.01 0.00 0.01 0.01 0.00 0.00 0.00 0.00 0.00 0.01 0.01 0.01 0.01 0.00 0.00 0.00 0.01 0.01 0.01 0.02 0.03 0.04 0.04 0.04
0.07 0.07 0.08 0.07 0.08 0.08 0.07 0.07 0.07 0.09 0.12 0.14 0.12 0.09 0.07 0.04 0.03 0.02 0.02 0.02 0.01 0.01 0.01 0.00 0.00 0.00 0.00 0.00 0.00 0.01 0.00 0.00 0.00 0.00 0.00 0.00 0.01 0.01 0.01 0.02 0.04 0.04 0.05
0.06 0.05 0.06 0.07 0.09 0.10 0.08 0.08 0.07 0.05 0.05 0.05 0.07 0.08 0.08 0.08 0.06 0.04 0.03 0.02 0.02 0.02 0.02 0.01 0.01 0.01 0.01 0.00 0.01 0.00 0.00 0.00 0.00 0.00 0.00 0.00 0.00 0.01 0.01 0.01 0.02 0.04 0.05
0.07 0.06 0.06 0.06 0.06 0.08 0.08 0.08 0.07 0.05 0.04 0.03 0.03 0.03 0.05 0.07 0.07 0.05 0.04 0.02 0.02 0.02 0.02 0.01 0.01 0.01 0.01 0.01 0.01 0.01 0.01 0.01 0.00 0.00 0.00 0.01 0.01 0.01 0.01 0.01 0.01 0.02 0.03
0.08 0.08 0.07 0.07 0.06 0.06 0.06 0.05 0.05 0.06 0.05 0.04 0.03 0.02 0.03 0.05 0.06 0.06 0.05 0.03 0.02 0.01 0.02 0.01 0.01 0.00 0.01 0.01 0.01 0.01 0.01 0.01 0.01 0.01 0.01 0.01 0.01 0.01 0.01 0.01 0.01 0.01 0.01
0.06 0.07 0.07 0.07 0.06 0.04 0.03 0.03 0.03 0.03 0.04 0.04 0.03 0.02 0.03 0.04 0.04 0.03 0.02 0.02 0.02 0.01 0.01 0.01 0.01 0.01 0.00 0.01 0.01 0.01 0.01 0.01 0.01 0.01 0.01 0.01 0.01 0.01 0.01 0.01 0.01 0.01 0.01
0.04 0.05 0.05 0.05 0.04 0.03 0.03 0.03 0.03 0.02 0.02 0.03 0.03 0.04 0.04 0.03 0.03 0.02 0.01 0.01 0.01 0.01 0.01 0.01 0.01 0.00 0.00 0.00 0.00 0.01 0.01 0.01 0.01 0.02 0.02 0.02 0.02 0.02 0.01 0.01 0.01 0.01 0.01
0.02 0.03 0.04 0.04 0.04 0.03 0.03 0.03 0.02 0.02 0.03 0.04 0.04 0.04 0.03 0.03 0.02 0.01 0.01 0.01 0.01 0.00 0.00 0.00 0.00 0.00 0.00 0.00 0.00 0.00 0.00 0.00 0.01 0.01 0.02 0.02 0.02 0.02 0.02 0.01 0.01 0.01 0.01
0.02 0.02 0.03 0.02 0.03 0.03 0.03 0.02 0.02 0.01 0.02 0.03 0.02 0.02 0.02 0.02 0.02 0.01 0.01 0.00 0.00 0.00 0.00 0.00 0.00 0.00 0.00 0.00 0.00 0.00 0.00 0.00 0.00 0.00 0.01 0.01 0.02 0.02 0.02 0.02 0.02 0.01 0.01
0.02 0.02 0.02 0.02 0.01 0.02 0.04 0.04 0.03 0.02 0.01 0.02 0.02 0.02 0.01 0.01 0.01 0.01 0.01 0.00 0.00 0.00 0.00 0.00 0.00 0.00 0.00 0.00 0.01 0.01 0.00 0.00 0.00 0.00 0.00 0.00 0.01 0.01 0.01 0.02 0.02 0.02 0.01
0.02 0.02 0.02 0.02 0.02 0.02 0.03 0.03 0.02 0.02 0.01 0.01 0.01 0.01 0.01 0.01 0.01 0.01 0.01 0.01 0.00 0.00 0.00 0.00 0.00 0.01 0.01 0.01 0.01 0.01 0.00 0.00 0.00 0.00 0.00 0.00 0.00 0.01 0.01 0.01 0.01 0.01 0.01
0.03 0.03 0.03 0.03 0.03 0.03 0.03 0.02 0.02 0.01 0.01 0.01 0.01 0.01 0.01 0.01 0.01 0.01 0.01 0.01 0.01 0.00 0.00 0.01 0.01 0.01 0.01 0.01 0.01 0.00 0.00 0.00 0.00 0.00 0.00 0.00 0.00 0.00 0.01 0.01 0.01 0.01 0.01
0.03 0.03 0.03 0.02 0.02 0.02 0.02 0.03 0.02 0.01 0.01 0.01 0.01 0.01 0.01 0.01 0.01 0.02 0.01 0.01 0.01 0.01 0.01 0.01 0.01 0.01 0.01 0.01 0.01 0.00 0.00 0.00 0.00 0.00 0.00 0.00 0.00 0.01 0.01 0.00 0.00 0.01 0.01
0.03 0.02 0.02 0.01 0.01 0.01 0.01 0.02 0.02 0.01 0.01 0.01 0.01 0.01 0.01 0.01 0.01 0.01 0.01 0.01 0.01 0.01 0.01 0.01 0.01 0.00 0.00 0.00 0.01 0.00 0.01 0.01 0.01 0.01 0.00 0.01 0.01 0.01 0.01 0.00 0.00 0.00 0.00
MSLP
1023.82 1023.90 1023.96 1024.01 1024.05 1024.08 1024.09 1024.08 1024.05 1023.99 1023.91 1023.84 1023.79 1023.77 1023.82 1023.93 1024.08 1024.26 1024.42 1024.52 1024.54 1024.46 1024.27 1023.99 1023.66 1023.31 1022.96 1022.65 1022.37 1022.11 1021.85 1021.57 1021.26 1020.90 1020.49 1020.06 1019.62 1019.18 1018.76 1018.36 1017.99 1017.62 1017.25
1023.80 1023.85 1023.90 1023.94 1023.98 1024.03 1024.07 1024.10 1024.10 1024.08 1024.04 1023.98 1023.94 1023.93 1023.97 1024.06 1024.20 1024.36 1024.51 1024.62 1024.66 1024.61 1024.47 1024.25 1023.97 1023.65 1023.33 1023.02 1022.71 1022.41 1022.10 1021.77 1021.39 1020.98 1020.53 1020.06 1019.59 1019.12 1018.67 1018.25 1017.85 1017.46 1017.08
1023.80 1023.84 1023.87 1023.91 1023.96 1024.03 1024.10 1024.16 1024.20 1024.21 1024.19 1024.16 1024.12 1024.11 1024.13 1024.19 1024.28 1024.40 1024.52 1024.61 1024.66 1024.63 1024.53 1024.37 1024.15 1023.89 1023.61 1023.32 1023.01 1022.69 1022.34 1021.95 1021.53 1021.06 1020.57 1020.07 1019.56 1019.07 1018.60 1018.16 1017.74 1017.33 1016.93
1023.83 1023.87 1023.91 1023.96 1024.03 1024.12 1024.21 1024.29 1024.35 1024.39 1024.39 1024.36 1024.32 1024.29 1024.28 1024.29 1024.33 1024.39 1024.46 1024.52 1024.55 1024.53 1024.47 1024.36 1024.21 1024.01 1023.79 1023.53 1023.25 1022.92 1022.55 1022.13 1021.66 1021.16 1020.63 1020.09 1019.56 1019.05 1018.56 1018.10 1017.66 1017.23 1016.81
1023.89 1023.96 1024.03 1024.11 1024.20 1024.30 1024.40 1024.50 1024.56 1024.60 1024.60 1024.57 1024.53 1024.47 1024.43 1024.39 1024.38 1024.38 1024.38 1024.39 1024.39 1024.36 1024.32 1024.25 1024.16 1024.03 1023.87 1023.66 1023.41 1023.09 1022.72 1022.28 1021.79 1021.26 1020.71 1020.15 1019.60 1019.07 1018.56 1018.07 1017.61 1017.15 1016.71
1023.96 1024.08 1024.20 1024.32 1024.44 1024.56 1024.66 1024.75 1024.81 1024.83 1024.82 1024.78 1024.73 1024.66 1024.59 1024.51 1024.45 1024.39 1024.34 1024.29 1024.25 1024.20 1024.16 1024.12 1024.07 1023.99 1023.88 1023.72 1023.50 1023.21 1022.85 1022.41 1021.91 1021.36 1020.80 1020.22 1019.65 1019.10 1018.57 1018.06 1017.56 1017.08 1016.59
1024.00 1024.19 1024.37 1024.55 1024.71 1024.84 1024.95 1025.02 1025.05 1025.06 1025.03 1024.98 1024.92 1024.85 1024.78 1024.69 1024.60 1024.50 1024.40 1024.30 1024.21 1024.13 1024.07 1024.03 1023.99 1023.94 1023.87 1023.75 1023.56 1023.29 1022.94 1022.50 1022.00 1021.45 1020.87 1020.28 1019.70 1019.13 1018.58 1018.03 1017.51 1016.98 1016.45
1023.99 1024.26 1024.52 1024.76 1024.96 1025.11 1025.21 1025.27 1025.28 1025.26 1025.22 1025.18 1025.13 1025.08 1025.03 1024.95 1024.86 1024.75 1024.62 1024.48 1024.34 1024.22 1024.12 1024.04 1023.99 1023.94 1023.87 1023.76 1023.58 1023.32 1022.98 1022.55 1022.05 1021.49 1020.91 1020.31 1019.71 1019.12 1018.54 1017.97 1017.41 1016.84 1016.27
1023.91 1024.26 1024.60 1024.90 1025.15 1025.33 1025.43 1025.48 1025.47 1025.44 1025.41 1025.38 1025.37 1025.36 1025.36 1025.33 1025.27 1025.17 1025.03 1024.86 1024.67 1024.49 1024.33 1024.20 1024.10 1024.01 1023.91 1023.78 1023.59 1023.32 1022.97 1022.54 1022.03 1021.47 1020.88 1020.27 1019.66 1019.05 1018.45 1017.86 1017.26 1016.66 1016.05
1023.76 1024.19 1024.60 1024.97 1025.27 1025.47 1025.59 1025.64 1025.63 1025.61 1025.59 1025.60 1025.65 1025.71 1025.78 1025.82 1025.81 1025.74 1025.60 1025.41 1025.18 1024.93 1024.70 1024.49 1024.31 1024.15 1023.99 1023.81 1023.58 1023.28 1022.91 1022.46 1021.94 1021.37 1020.77 1020.15 1019.53 1018.91 1018.30 1017.68 1017.06 1016.44 1015.80
1023.57 1024.06 1024.54 1024.97 1025.31 1025.55 1025.70 1025.76 1025.77 1025.77 1025.79 1025.85 1025.97 1026.11 1026.26 1026.37 1026.43 1026.40 1026.27 1026.06 1025.79 1025.48 1025.16 1024.86 1024.59 1024.34 1024.10 1023.85 1023.55 1023.21 1022.80 1022.32 1021.78 1021.19 1020.58 1019.96 1019.33 1018.71 1018.08 1017.46 1016.82 1016.18 1015.53
1023.36 1023.91 1024.44 1024.92 1025.30 1025.58 1025.75 1025.84 1025.88 1025.92 1025.99 1026.12 1026.30 1026.52 1026.75 1026.94 1027.05 1027.05 1026.94 1026.72 1026.41 1026.04 1025.65 1025.26 1024.89 1024.55 1024.21 1023.88 1023.51 1023.11 1022.64 1022.13 1021.56 1020.96 1020.34 1019.71 1019.08 1018.45 1017.83 1017.19 1016.56 1015.91 1015.25
1023.16 1023.74 1024.31 1024.83 1025.25 1025.57 1025.77 1025.90 1025.98 1026.07 1026.19 1026.37 1026.61 1026.90 1027.18 1027.43 1027.59 1027.62 1027.52 1027.29 1026.95 1026.53 1026.08 1025.61 1025.16 1024.73 1024.31 1023.89 1023.45 1022.98 1022.47 1021.91 1021.32 1020.70 1020.07 1019.43 1018.80 1018.17 1017.54 1016.91 1016.27 1015.62 1014.95
1022.98 1023.59 1024.18 1024.72 1025.17 1025.52 1025.76 1025.93 1026.05 1026.18 1026.35 1026.57 1026.86 1027.18 1027.50 1027.77 1027.96 1028.01 1027.91 1027.68 1027.33 1026.88 1026.39 1025.88 1025.36 1024.87 1024.38 1023.89 1023.39 1022.87 1022.30 1021.71 1021.08 1020.44 1019.79 1019.15 1018.51 1017.88 1017.26 1016.63 1015.98 1015.32 1014.65
1022.82 1023.44 1024.05 1024.60 1025.07 1025.44 1025.72 1025.92 1026.08 1026.24 1026.44 1026.69 1026.99 1027.32 1027.65 1027.93 1028.12 1028.17 1028.09 1027.86 1027.51 1027.07 1026.56 1026.03 1025.50 1024.96 1024.43 1023.90 1023.35 1022.78 1022.17 1021.54 1020.88 1020.22 1019.55 1018.90 1018.25 1017.62 1016.99 1016.35 1015.69 1015.02 1014.33
1022.67 1023.31 1023.91 1024.47 1024.95 1025.33 1025.63 1025.86 1026.05 1026.24 1026.45 1026.70 1027.00 1027.32 1027.63 1027.89 1028.07 1028.12 1028.04 1027.83 1027.51 1027.09 1026.61 1026.10 1025.56 1025.03 1024.48 1023.92 1023.34 1022.73 1022.09 1021.43 1020.75 1020.06 1019.37 1018.70 1018.04 1017.39 1016.74 1016.08 1015.41 1014.72 1014.01
1022.53 1023.16 1023.77 1024.32 1024.80 1025.19 1025.51 1025.76 1025.97 1026.16 1026.38 1026.62 1026.89 1027.18 1027.46 1027.69 1027.84 1027.89 1027.83 1027.64 1027.36 1026.99 1026.56 1026.09 1025.59 1025.08 1024.54 1023.98 1023.38 1022.75 1022.08 1021.39 1020.68 1019.97 1019.26 1018.56 1017.87 1017.19 1016.51 1015.83 1015.13 1014.41 1013.67
1022.39 1023.01 1023.61 1024.15 1024.63 1025.03 1025.35 1025.62 1025.84 1026.04 1026.25 1026.47 1026.71 1026.96 1027.20 1027.39 1027.52 1027.57 1027.52 1027.38 1027.14 1026.84 1026.47 1026.06 1025.62 1025.14 1024.62 1024.06 1023.46 1022.82 1022.14 1021.42 1020.69 1019.95 1019.21 1018.48 1017.76 1017.04 1016.32 1015.60 1014.86 1014.10 1013.32
1022.24 1022.86 1023.44 1023.97 1024.45 1024.85 1025.19 1025.46 1025.69 1025.90 1026.10 1026.31 1026.51 1026.72 1026.92 1027.08 1027.19 1027.23 1027.20 1027.10 1026.92 1026.67 1026.38 1026.03 1025.63 1025.19 1024.71 1024.16 1023.57 1022.92 1022.23 1021.50 1020.74 1019.98 1019.22 1018.45 1017.69 1016.93 1016.16 1015.39 1014.59 1013.79 1012.97
1022.09 1022.70 1023.27 1023.80 1024.27 1024.67 1025.02 1025.31 1025.56 1025.77 1025.97 1026.16 1026.35 1026.52 1026.68 1026.82 1026.91 1026.95 1026.93 1026.85 1026.72 1026.53 1026.28 1025.99 1025.64 1025.24 1024.78 1024.25 1023.67 1023.02 1022.33 1021.59 1020.83 1020.05 1019.26 1018.46 1017.66 1016.85 1016.03 1015.19 1014.34 1013.48 1012.62
1021.96 1022.56 1023.11 1023.63 1024.09 1024.51 1024.87 1025.18 1025.44 1025.67 1025.88 1026.06 1026.23 1026.39 1026.53 1026.63 1026.71 1026.74 1026.73 1026.67 1026.56 1026.40 1026.19 1025.94 1025.62 1025.24 1024.80 1024.30 1023.73 1023.09 1022.41 1021.68 1020.92 1020.13 1019.32 1018.50 1017.66 1016.80 1015.92 1015.02 1014.11 1013.19 1012.28
1021.84 1022.43 1022.97 1023.48 1023.94 1024.36 1024.74 1025.07 1025.36 1025.61 1025.83 1026.03 1026.19 1026.34 1026.45 1026.54 1026.59 1026.61 1026.59 1026.53 1026.43 1026.28 1026.08 1025.84 1025.54 1025.18 1024.76 1024.27 1023.72 1023.11 1022.45 1021.74 1020.99 1020.21 1019.40 1018.55 1017.67 1016.77 1015.83 1014.87 1013.89 1012.91 1011.95
1021.74 1022.31 1022.84 1023.33 1023.80 1024.23 1024.62 1024.98 1025.29 1025.58 1025.82 1026.03 1026.20 1026.34 1026.44 1026.51 1026.55 1026.54 1026.49 1026.41 1026.29 1026.14 1025.93 1025.69 1025.39 1025.03 1024.62 1024.16 1023.63 1023.06 1022.43 1021.75 1021.04 1020.27 1019.46 1018.60 1017.70 1016.75 1015.75 1014.73 1013.70 1012.66 1011.66
1021.64 1022.19 1022.71 1023.20 1023.66 1024.10 1024.51 1024.89 1025.23 1025.55 1025.82 1026.04 1026.23 1026.37 1026.46 1026.51 1026.52 1026.48 1026.41 1026.30 1026.15 1025.96 1025.74 1025.47 1025.17 1024.82 1024.42 1023.98 1023.49 1022.95 1022.37 1021.74 1021.05 1020.31 1019.51 1018.65 1017.72 1016.74 1015.70 1014.62 1013.53 1012.45 1011.40
1021.55 1022.08 1022.58 1023.06 1023.52 1023.96 1024.39 1024.79 1025.17 1025.50 1025.80 1026.05 1026.24 1026.39 1026.47 1026.51 1026.49 1026.42 1026.31 1026.17 1025.98 1025.76 1025.51 1025.23 1024.91 1024.56 1024.18 1023.76 1023.31 1022.81 1022.28 1021.69 1021.04 1020.33 1019.55 1018.68 1017.74 1016.72 1015.65 1014.53 1013.39 1012.27 1011.19
1021.46 1021.96 1022.45 1022.92 1023.38 1023.83 1024.27 1024.69 1025.08 1025.44 1025.76 1026.02 1026.23 1026.37 1026.45 1026.47 1026.44 1026.35 1026.21 1026.03 1025.81 1025.57 1025.29 1024.99 1024.66 1024.32 1023.95 1023.55 1023.13 1022.68 1022.18 1021.63 1021.02 1020.33 1019.56 1018.69 1017.74 1016.70 1015.60 1014.45 1013.29 1012.14 1011.03
Thickness
5666 5665 5665 5664 5663 5663 5663 5663 5663 5664 5663 5663 5662 5662 5661 5659 5657 5655 5653 5651 5649 5647 5646 5644 5642 5640 5638 5635 5633 5631 5629 5628 5626 5624 5623 5621 5619 5617 5616 5614 5613 5611 5610
5659 5658 5657 5657 5656 5656 5656 5657 5657 5656 5656 5656 5655 5655 5654 5653 5651 5649 5646 5644 5642 5640 5638 5636 5634 5632 5630 5628 5626 5623 5622 5620 5618 5616 5615 5613 5611 5609 5608 5606 5605 5603 5601
5650 5650 5650 5649 5649 5649 5649 5649 5649 5648 5648 5648 5647 5647 5646 5646 5644 5642 5640 5637 5634 5632 5630 5628 5626 5624 5622 5620 5618 5616 5614 5612 5610 5609 5607 5605 5603 5601 5600 5598 5597 5595 5593
5642 5641 5642 5641 5641 5641 5641 5641 5640 5639 5639 5639 5638 5638 5638 5638 5637 5635 5632 5630 5627 5625 5622 5620 5618 5616 5614 5612 5610 5608 5606 5604 5602 5600 5598 5596 5595 5593 5592 5590 5588 5586 5584
5634 5633 5633 5634 5633 5633 5633 5633 5632 5631 5630 5630 5630 5630 5630 5630 5629 5627 5625 5623 5620 5618 5615 5612 5610 5608 5606 5604 5602 5600 5598 5596 5594 5592 5590 5588 5586 5584 5583 5581 5579 5577 5575
5625 5625 5625 5625 5625 5624 5624 5624 5623 5623 5622 5622 5623 5622 5622 5622 5621 5619 5617 5615 5613 5610 5608 5605 5602 5600 5597 5595 5593 5591 5589 5587 5585 5583 5581 5579 5577 5576 5574 5572 5570 5568 5565
5616 5616 5617 5616 5617 5616 5616 5616 5615 5614 5613 5614 5612 5611 5612 5613 5613 5611 5610 5608 5606 5603 5600 5598 5595 5592 5589 5586 5584 5582 5580 5578 5576 5574 5572 5570 5568 5566 5565 5563 5561 5558 5555
5607 5608 5608 5607 5608 5607 5607 5607 5606 5605 5605 5606 5604 5602 5600 5601 5602 5604 5602 5600 5598 5596 5593 5590 5587 5584 5581 5579 5576 5573 5571 5569 5568 5566 5563 5561 5559 5557 5555 5554 5552 5549 5546
5597 5597 5598 5599 5599 5599 5599 5598 5598 5597 5596 5596 5596 5594 5592 5591 5592 5594 5594 5593 5590 5588 5586 5583 5580 5576 5573 5571 5568 5565 5562 5560 5558 5556 5554 5552 5549 5548 5546 5544 5542 5539 5536
5587 5589 5589 5590 5590 5591 5591 5590 5590 5589 5588 5586 5586 5586 5585 5585 5582 5581 5583 5583 5582 5580 5578 5575 5572 5568 5566 5563 5560 5556 5554 5551 5549 5547 5545 5542 5540 5538 5536 5534 5532 5529 5526
5579 5580 5580 5581 5581 5582 5583 5582 5582 5581 5580 5579 5577 5576 5576 5575 5575 5573 5571 5571 5571 5571 5569 5567 5564 5560 5557 5554 5551 5548 5545 5542 5540 5538 5535 5533 5530 5528 5526 5524 5521 5519 5517
5569 5570 5571 5572 5573 5573 5574 5573 5573 5573 5572 5571 5569 5568 5567 5565 5564 5563 5561 5561 5560 5560 5560 5558 5555 5552 5549 5545 5542 5539 5537 5534 5532 5529 5526 5523 5521 5518 5516 5513 5511 5508 5507
5559 5560 5562 5562 5563 5564 5564 5564 5564 5564 5564 5562 5560 5559 5558 5557 5556 5555 5552 5550 5550 5550 5551 5548 5546 5543 5539 5536 5534 5531 5528 5526 5523 5520 5518 5515 5512 5509 5506 5504 5501 5499 5496
5551 5552 5553 5553 5554 5555 5555 5554 5554 5554 5554 5553 5551 5550 5549 5548 5547 5546 5543 5540 5538 5539 5539 5538 5537 5533 5530 5528 5525 5522 5519 5517 5514 5512 5509 5506 5503 5500 5497 5494 5491 5489 5487
5542 5543 5543 5545 5545 5546 5545 5545 5544 5544 5544 5543 5541 5540 5539 5539 5537 5536 5534 5532 5529 5526 5527 5528 5525 5524 5521 5519 5516 5513 5511 5508 5506 5503 5500 5497 5494 5491 5488 5485 5482 5480 5478
5531 5533 5534 5535 5536 5536 5535 5535 5534 5534 5534 5533 5531 5530 5529 5528 5527 5526 5525 5523 5522 5519 5517 5518 5516 5514 5512 5510 5507 5505 5502 5499 5497 5494 5492 5489 5485 5482 5479 5476 5473 5471 5470
5523 5525 5525 5526 5526 5526 5526 5525 5525 5524 5523 5523 5522 5521 5520 5519 5518 5517 5515 5514 5513 5511 5508 5508 5506 5505 5502 5500 5498 5496 5493 5491 5488 5486 5483 5480 5476 5473 5470 5467 5464 5462 5461
5514 5515 5515 5516 5517 5517 5517 5516 5516 5515 5514 5513 5513 5512 5511 5510 5509 5508 5506 5505 5504 5503 5500 5498 5497 5495 5493 5490 5489 5487 5484 5482 5479 5477 5474 5470 5467 5464 5461 5458 5455 5453 5452
5505 5505 5506 5506 5507 5507 5508 5507 5506 5506 5505 5505 5504 5503 5502 5501 5500 5498 5498 5497 5495 5494 5492 5490 5487 5485 5483 5481 5480 5478 5475 5473 5470 5468 5464 5462 5458 5454 5452 5449 5447 5445 5443
5495 5496 5496 5496 5497 5497 5498 5498 5497 5497 5496 5495 5495 5494 5493 5492 5491 5490 5489 5487 5486 5484 5482 5480 5478 5476 5474 5472 5470 5468 5466 5464 5461 5459 5456 5452 5448 5445 5442 5440 5439 5437 5435
5485 5486 5486 5486 5487 5487 5488 5488 5488 5488 5487 5486 5485 5485 5484 5483 5482 5481 5480 5478 5477 5475 5472 5470 5468 5467 5465 5462 5460 5458 5456 5454 5452 5450 5447 5444 5441 5438 5434 5432 5431 5429 5427
5475 5476 5475 5476 5476 5477 5478 5479 5479 5478 5478 5477 5477 5476 5475 5474 5473 5472 5471 5470 5469 5467 5464 5461 5459 5456 5455 5452 5451 5448 5445 5443 5442 5441 5436 5435 5432 5429 5427 5425 5423 5422 5421
5465 5465 5465 5465 5465 5466 5468 5469 5469 5468 5467 5467 5467 5466 5466 5465 5464 5462 5462 5461 5459 5458 5457 5454 5450 5448 5446 5444 5442 5439 5435 5430 5428 5428 5426 5426 5425 5422 5420 5418 5417 5416 5414
5454 5454 5454 5454 5455 5457 5458 5458 5458 5457 5456 5457 5457 5457 5456 5455 5454 5453 5452 5450 5449 5448 5447 5445 5443 5440 5439 5436 5433 5430 5426 5423 5421 5419 5417 5416 5417 5415 5415 5413 5411 5410 5408
5443 5443 5443 5444 5445 5446 5446 5447 5447 5446 5445 5446 5447 5447 5446 5445 5445 5444 5442 5440 5439 5438 5436 5435 5433 5432 5430 5428 5425 5421 5418 5415 5414 5413 5410 5407 5407 5408 5409 5408 5406 5404 5403
5432 5432 5433 5434 5435 5435 5435 5436 5436 5436 5436 5436 5436 5436 5436 5436 5435 5434 5432 5431 5429 5428 5427 5425 5424 5422 5420 5418 5415 5412 5409 5406 5404 5403 5402 5399 5398 5397 5400 5402 5400 5399 5398